Regional Weather Roundup
Issued by NWS Cleveland, OH

Home | Current Version | Previous Version | Text Only | Print | Product List | Glossary Off
Versions: 1 2 3 4 5 6 7 8 9 10 11 12 13 14 15 16 17 18 19 20 21 22 23 24 25 26 27 28 29 30 31 32 33 34 35 36 37 38 39 40 41 42 43 44 45 46 47 48 49 50

705
ASUS41 KCLE 251410
RWRCLE
OHIO REGIONAL WEATHER ROUNDUP
NATIONAL WEATHER SERVICE WILMINGTON, OH
900 AM EST SAT FEB 25 2017

NOTE: "FAIR" INDICATES FEW OR NO CLOUDS BELOW 12,000 FEET WITH NO
SIGNIFICANT WEATHER AND/OR OBSTRUCTIONS TO VISIBILITY.

OHZ001>008-015>018-024>027-034-035-043-044-251500-
   NORTHWEST OHIO

CITY           SKY/WX    TMP DP  RH WIND       PRES   REMARKS
DEFIANCE       CLOUDY    34  26  72 W8G21     29.64R WCI  27
FINDLAY        PTSUNNY   38  29  70 SW24G36   29.62R
TOLEDO EXPRESS MIX PCPN  36  33  89 W23G30    29.60R
TOLEDO EXEC    CLOUDY    38  34  85 W16G23    29.60R
LIMA           CLOUDY    35  31  85 SW24G35   29.65R WCI  23
$$

OHZ009>014-019>023-028>033-038-089-251500-
   NORTHEAST OHIO

CITY           SKY/WX    TMP DP  RH WIND       PRES   REMARKS
CLE-HOPKINS    PTSUNNY   44  31  60 W21G30    29.61R
CLE-LAKEFRONT  FAIR      43  33  68 SW20G30   29.58R
CUY CO. ARPT   PTSUNNY   45  36  70 W15G25    29.58R
LORAIN-ELYRIA  FAIR      42  32  67 W16       29.60R
ASHTABULA      CLOUDY    44  40  85 W12       29.57R
AKRON-CANTON   PTSUNNY   44  33  65 W18       29.60R
WOOSTER        FAIR      42  32  67 W15       29.61R
MANSFIELD      FAIR      41  32  70 SW21G26   29.60S
YOUNGSTOWN     PTSUNNY   44  34  67 W12       29.58R
$$

OHZ042-051>053-060>062-070>072-077>081-251500-
  SOUTHWEST OHIO

CITY           SKY/WX    TMP DP  RH WIND       PRES   REMARKS
CINC-COVINGTON CLOUDY    36  25  64 W22G30    29.78R
CINC-LUNKEN    CLOUDY    38  26  62 W17G24    29.80R
HAMILTON       CLOUDY    37  25  61 W17G25    29.78R
DAYTON         CLOUDY    36  27  69 W28G33    29.72R
WRIGHT-PAT AFB CLOUDY    37  27  67 W21G26    29.71R
DAYTON GENERAL CLOUDY    37  25  61 W15G24    29.73R
WILMINGTON     CLOUDY    37  26  64 W25G33    29.72R
$$

OHZ036-037-039>041-045>050-054>059-063>069-073>076-082>088-251500-
  CENTRAL AND SOUTHEAST OHIO

CITY           SKY/WX    TMP DP  RH WIND       PRES   REMARKS
COLUMBUS       FAIR      46  35  65 SW13      29.66R
OSU AIRPORT    CLOUDY    42  35  76 W10       29.66R
BOLTON FIELD   PTSUNNY   43  36  75 W13       29.67S
RICKENBACK AFB FAIR      43  36  75 W17G25    29.67S
NEWARK         FAIR      45  33  63 W14       29.65S
MARION         CLOUDY    38  28  67 W18G37    29.65R
LANCASTER      PTSUNNY   45  35  68 SW13      29.67S
ZANESVILLE     PTSUNNY   46  39  76 W13G18    29.65R
NEW PHILLY     CLOUDY    45  37  73 W12       29.63R
$$




USA.gov is the U.S. government's official web portal to all federal, state and local government web resources and services.